EHI
0 0 0 0 0 0 0 0 0 0 0 0 0 0 0 0 0 1 1 1 0 0 0 0 0 0 0 0 0 0 0 0 0 0 0 0 0 0
0 0 0 0 0 0 0 0 0 0 0 0 0 0 0 0 0 0 0 0 0 0 0 0 0 0 0 0 0 0 0 0 0 0 0 0 0 0
0 0 0 0 0 0 0 0 0 0 0 0 0 0 0 0 0 0 0 0 0 0 0 0 0 0 0 0 0 0 0 0 0 0 0 0 0 0
0 0 0 0 0 0 0 0 0 0 0 0 0 0 0 0 0 0 0 0 0 0 0 0 0 0 0 0 0 0 0 0 0 0 0 0 0 0
0 0 0 0 0 0 0 0 0 0 0 0 1 1 1 0 0 0 0 0 0 0 0 0 0 0 0 0 0 0 0 0 0 0 0 0 0 0
1 1 0 0 0 0 0 0 0 0 0 0 1 1 1 0 0 0 0 0 0 0 0 0 0 0 0 0 0 0 0 0 0 0 0 0 0 0
3 3 2 1 0 0 0 0 0 0 0 0 0 0 0 0 0 0 0 0 0 0 0 0 0 0 0 0 0 0 0 0 0 0 0 0 0 0
6 5 5 4 2 0 0 0 0 0 0 1 1 1 1 1 1 0 0 0 0 0 0 0 0 0 0 0 0 0 0 0 0 0 0 0 0 0
6 6 6 6 4 2 1 0 0 0 1 2 2 2 2 2 3 1 0 1 1 2 1 1 1 1 1 1 0 0 0 0 0 0 0 0 0 0
6 6 6 6 5 3 2 1 1 0 0 1 2 1 1 1 2 2 2 2 3 3 3 2 2 2 2 2 1 0 0 0 0 0 0 0 0 0
6 6 6 6 5 2 1 2 2 1 1 1 1 0 0 0 1 2 3 3 3 3 3 3 3 3 4 4 2 1 0 0 0 0 0 0 0 0
6 6 6 6 4 1 1 2 2 1 1 2 2 1 1 1 1 2 3 3 3 3 4 4 4 4 5 5 4 2 1 1 0 0 0 0 0 0
6 6 6 5 2 1 0 1 1 1 1 2 2 2 2 2 2 2 3 3 3 4 5 5 5 5 5 5 5 3 3 2 1 1 0 0 0 0
4 4 4 2 1 0 0 0 0 0 1 2 3 3 2 1 2 3 3 3 3 3 4 5 5 4 4 4 4 3 3 3 3 2 1 0 0 0
2 1 1 0 0 0 0 0 0 0 0 1 2 2 1 1 1 2 3 3 3 3 3 4 4 3 3 3 3 3 3 3 3 3 2 1 0 0
2 2 1 0 0 0 0 0 0 0 0 0 1 1 0 0 1 1 2 3 3 3 3 3 3 3 3 3 3 3 3 3 3 3 2 1 0 0
3 4 4 2 1 0 0 0 0 0 0 0 0 0 0 0 0 0 1 2 2 2 2 3 3 3 3 3 3 3 3 3 3 3 1 0 0 0
5 6 7 6 3 1 0 0 0 0 0 0 0 0 0 0 0 0 0 1 1 1 1 2 2 2 2 3 3 3 3 3 3 2 1 0 0 0
5 6 6 6 5 3 2 1 1 0 0 0 0 0 0 0 0 0 0 0 0 0 0 1 1 1 1 1 2 1 1 2 1 1 0 0 0 0
4 4 4 4 4 4 4 3 2 1 0 0 0 0 0 0 0 0 0 0 0 0 0 0 0 0 0 0 0 0 0 0 0 0 0 0 0 0
3 3 3 3 3 4 6 5 4 3 2 1 1 1 0 0 0 0 0 0 0 0 0 0 0 0 0 0 0 0 0 0 0 0 0 0 0 0
3 3 3 3 2 3 5 6 6 5 4 3 2 1 0 0 0 0 0 0 0 0 0 0 0 0 0 0 0 0 0 0 0 0 0 0 0 0
3 3 3 3 2 2 5 6 6 5 4 3 2 1 0 0 0 0 0 0 0 0 0 0 0 0 0 0 0 0 0 0 0 0 0 0 0 0
Wind_Speed
1 1 1 1 1 1 1 1 1 2 3 2 2 2 3 3 3 3 3 4 5 6 6 6 7 7 7 7 7 7 7 7 7 8 8 8 8 8
1 1 1 1 1 1 1 1 1 2 3 2 3 3 2 3 3 3 4 5 5 6 6 6 7 7 7 7 7 8 7 7 7 8 8 8 8 8
1 1 2 2 1 1 1 1 1 1 3 3 2 2 2 2 2 2 3 3 4 6 6 7 7 7 7 8 8 8 8 8 8 8 8 8 8 8
2 1 2 2 2 2 1 2 2 2 2 3 2 2 2 2 2 2 2 3 4 5 7 7 7 7 7 8 8 8 8 8 8 8 8 8 9 9
3 2 3 2 2 2 2 2 2 2 2 2 3 2 2 2 2 2 3 3 4 4 7 7 8 8 7 8 8 8 8 8 8 8 8 8 9 9
3 3 3 3 3 3 3 3 2 2 2 2 3 2 2 2 2 2 3 3 4 4 4 5 6 8 8 8 9 9 9 9 9 9 9 9 9 9
3 3 4 4 4 3 3 3 2 2 2 2 3 2 2 2 3 2 4 3 4 3 3 4 4 4 5 7 9 9 9 10 10 9 9 9 9 9
4 4 4 4 5 5 5 4 4 4 3 3 3 4 4 4 3 4 3 3 4 3 3 4 4 5 5 5 7 9 9 10 10 10 10 10 10 10
4 4 4 4 4 4 5 5 5 6 6 4 5 5 5 4 4 4 4 4 5 2 2 4 3 5 4 5 8 10 10 10 10 10 10 10 10 10
4 4 4 5 4 4 4 4 5 5 6 5 5 6 6 5 5 5 5 4 4 3 3 4 3 4 4 4 7 10 10 10 10 10 10 10 10 10
4 4 4 5 6 4 3 4 5 5 5 7 8 7 7 6 4 3 3 3 4 3 3 3 3 3 3 4 5 8 9 9 10 10 10 10 9 9
3 4 5 5 6 4 3 4 5 6 5 4 4 5 5 5 5 5 5 4 3 3 3 4 3 2 3 3 3 3 4 6 8 9 9 9 9 6
3 3 4 6 6 5 3 4 6 5 4 4 3 3 3 3 3 4 4 5 5 4 3 3 3 3 3 2 2 3 3 3 3 5 6 8 9 8
3 3 3 5 5 4 3 4 5 3 2 2 3 3 3 4 4 4 4 5 5 6 5 5 4 4 3 3 3 2 2 2 2 3 2 4 6 8
3 4 4 5 4 4 4 4 3 2 2 2 3 4 4 4 4 3 4 4 5 5 5 6 5 4 4 4 3 2 2 2 2 3 2 2 3 3
4 4 4 3 3 3 4 3 2 2 2 3 4 4 3 3 3 3 3 3 3 3 3 4 5 5 4 4 3 3 2 2 2 2 2 2 2 3
2 2 2 2 2 2 2 2 2 2 2 3 3 3 3 3 3 3 2 2 2 3 3 2 2 2 3 3 3 3 3 2 3 3 3 3 3 3
1 1 2 2 2 3 3 3 2 2 3 3 3 3 3 3 3 3 2 2 3 3 3 2 1 1 1 1 3 3 2 2 2 2 2 3 2 2
1 2 2 3 3 3 3 3 3 3 3 2 2 3 3 3 3 3 3 2 3 3 3 2 2 2 2 3 2 3 3 2 2 2 2 2 2 2
2 2 3 3 3 3 3 3 3 2 2 2 2 2 2 2 3 3 3 3 3 3 3 2 2 2 3 3 2 1 3 3 2 2 2 1 1 1
2 3 3 3 3 3 3 3 2 2 2 2 2 2 2 3 3 3 3 3 3 3 3 3 4 4 2 1 1 1 0 1 2 2 2 2 1 1
3 3 3 3 2 2 2 2 2 2 2 2 2 3 3 2 3 3 3 3 3 3 4 4 3 2 1 2 2 1 0 1 1 1 1 2 2 3
3 3 3 2 2 2 2 2 3 2 2 2 2 3 3 2 2 2 3 3 3 3 3 3 2 1 1 1 1 1 1 1 1 1 2 2 2 1
Wind_Direction
317 313 297 291 289 266 242 226 214 259 274 269 267 261 247 235 236 228 228 225 217 215 216 220 221 218 216 215 216 218 217 219 221 218 218 217 221 226
305 335 320 300 294 274 252 250 237 230 258 261 248 261 251 245 232 228 230 221 219 219 222 221 221 218 215 215 214 213 212 213 218 217 215 215 216 218
325 333 306 296 296 287 269 252 243 227 251 275 263 273 242 254 255 236 227 225 232 226 225 224 221 222 218 216 215 214 214 213 217 218 215 212 213 213
286 290 294 295 290 283 265 259 253 239 237 269 278 267 253 255 250 241 241 236 240 234 229 226 225 225 223 221 218 217 218 216 215 215 213 212 213 214
268 262 271 273 279 275 265 264 261 257 246 260 277 264 258 270 258 258 255 250 248 239 229 229 229 229 227 224 220 218 218 217 217 215 212 210 211 212
281 271 263 253 255 255 255 258 257 255 254 262 275 274 263 272 250 253 261 248 252 251 241 237 232 230 230 229 225 220 217 217 218 216 211 210 212 212
287 281 273 274 265 254 260 252 240 246 254 260 268 277 267 256 247 241 252 262 250 235 243 241 234 235 230 227 225 221 217 215 216 217 215 213 211 212
280 283 281 275 278 268 265 254 231 230 241 247 256 263 264 255 250 241 245 256 259 219 226 251 231 237 235 228 220 216 214 215 215 215 215 213 211 210
273 279 285 291 283 280 274 264 251 244 232 229 247 256 260 250 246 250 240 243 250 232 219 252 234 239 237 230 217 213 212 213 214 214 213 211 211 210
276 273 276 290 291 285 279 275 267 262 247 237 244 254 259 256 240 245 252 258 264 249 211 247 248 247 252 237 216 211 211 213 213 214 213 212 211 210
288 291 287 290 297 294 275 276 281 281 268 254 249 257 265 265 256 252 248 248 262 254 208 228 246 258 254 242 223 212 213 214 215 216 214 211 211 210
302 303 296 295 299 291 267 269 278 284 293 293 277 275 272 265 246 232 233 238 249 252 215 210 227 236 260 238 223 215 212 215 217 220 216 212 206 205
298 304 304 303 297 290 269 265 271 281 290 289 291 295 294 282 264 250 232 229 236 245 225 206 223 226 239 263 252 225 215 219 219 220 217 211 204 199
278 285 296 309 305 306 300 304 299 295 295 299 298 297 296 294 288 279 259 247 246 252 245 228 232 227 236 252 259 248 222 219 216 223 217 199 202 204
279 293 304 314 312 313 319 327 328 318 310 299 293 290 287 288 292 290 284 270 264 260 249 237 235 229 226 231 231 237 244 226 205 212 215 209 209 201
289 300 302 316 321 318 328 330 324 314 302 293 294 296 301 305 303 302 296 296 288 289 272 251 238 225 226 223 215 227 222 209 200 203 207 218 214 208
301 314 326 335 337 329 324 324 326 329 311 305 309 313 316 316 314 320 308 297 285 295 303 299 264 233 225 218 217 223 220 225 219 203 195 211 216 211
291 287 286 294 294 297 302 308 311 307 299 298 301 303 303 304 308 313 311 300 292 293 294 298 295 265 207 238 224 224 222 220 216 195 193 202 214 205
240 270 274 277 281 284 285 284 283 284 284 289 295 297 298 302 304 310 312 310 309 302 300 302 284 249 242 253 245 200 209 216 201 198 199 205 214 215
275 274 277 280 284 286 284 285 287 295 292 288 293 296 297 299 302 304 304 308 307 307 308 309 291 257 247 250 250 247 208 204 197 199 204 210 194 159
276 279 280 281 282 286 292 294 295 299 302 300 302 304 301 297 295 297 302 313 308 309 307 300 293 276 256 206 203 261 233 189 194 197 190 180 186 192
282 278 276 274 278 287 291 293 297 301 304 305 310 307 302 297 295 299 301 304 304 305 303 303 308 298 205 188 202 218 114 61 53 89 145 183 193 199
289 290 291 291 290 292 292 296 297 298 301 304 305 301 298 295 294 296 297 296 302 309 314 316 325 319 251 201 199 192 173 153 95 68 28 27 131 140